Miscellaneous Local Product
Issued by NWS North Platte, NE

Home | Current Version | Previous Version | Text Only | Print | Product List | Glossary On
Versions: 1 2 3 4 5 6 7 8 9 10 11 12 13 14 15 16 17 18 19 20 21 22 23 24 25 26 27 28 29 30 31 32 33 34 35 36 37 38 39 40 41 42 43 44 45 46 47 48 49 50
000
AXUS43 KLBF 021410
MISLBF


WESTERN AND NORTH CENTRAL NEBRASKA HOURLY WEATHER ROUNDUP
NATIONAL WEATHER SERVICE NORTH PLATTE NE
800 AM CST MON MAR 02 2015

***STATIONS NOT REPORTING VARIABLES SUCH AS SKY/WEATHER OR
PRESSURE ARE PROVIDED BY THE NEBRASKA DEPARTMENT OF
ROADS...RAWS...AND APRS NETWORKS...AND ARE NOT UNDER
NATIONAL WEATHER SERVICE QUALITY CONTROL***

...OBSERVATIONS IN AND NEAR THE EASTERN PANHANDLE OF NEBRASKA...

CITY           SKY/WX    TMP DP  RH WIND       PRES   REMARKS
PINE RIDGE     MOCLDY    28  14  55 S16G25    30.02F WCI  16
CHADRON        MOCLDY    32  17  54 S26G33    29.99F WCI  18
ALLIANCE       CLOUDY    26  19  74 S16       30.04F WCI  14
SIDNEY         CLOUDY    27  18  69 S20G28    30.05F WCI  13
WHITECLAY        N/A     29  15  55 S21         N/A  WCI  15
CRESCENT LAKE    N/A     27  17  66 S14         N/A  WCI  16
LISCO            N/A     30  18  59 E14         N/A  WCI  20
BIG SPRINGS      N/A     30  20  65 S14         N/A  WCI  19
LEWELLEN         N/A     28  17  65 SE10        N/A  WCI  18
$$

...OBSERVATIONS IN NORTH CENTRAL NEBRASKA...

CITY           SKY/WX    TMP DP  RH WIND       PRES   REMARKS
VALENTINE      CLOUDY    26  11  52 S21G28    30.18F WCI  12
THEDFORD       CLOUDY    29  16  57 S14       30.20F WCI  18
AINSWORTH      CLOUDY    26  12  55 S16G23    30.22S WCI  13
O`NEILL        CLOUDY    24  15  67 SE12      30.31F WCI  13
ORD            CLOUDY    26  12  55 SE9       30.33R WCI  17
BROKEN BOW     CLOUDY    28  14  55 SE10      30.28F WCI  19
BROWNLEE         N/A     25  11  54 S15         N/A  WCI  13
SPRINGVIEW       N/A     26  13  57 SE8         N/A  WCI  18
BREWSTER         N/A     32  18  55 S14         N/A  WCI  22
ROSE             N/A     30  18  62 E13         N/A  WCI  20
NEWPORT          N/A     30  18  59 S13         N/A  WCI  20
SARGENT          N/A     26  16  64 SE6         N/A  WCI  19
COMSTOCK         N/A     32  18  55 S10         N/A  WCI  24
CHAMBERS         N/A     24  11  57 S5          N/A  WCI  18
EWING            N/A     21  16  79 SE5         N/A  WCI  15
$$

...OBSERVATIONS IN SOUTHWEST NEBRASKA AND FAR NORTHEAST COLORADO...

CITY           SKY/WX    TMP DP  RH WIND       PRES   REMARKS
WRAY           CLOUDY    27  21  77 SE12      30.15F WCI  17
IMPERIAL         N/A     28  17  63 S17       30.19F WCI  16
OGALLALA       CLOUDY    30  20  67 S15G23    30.16F WCI  19
NORTH PLATTE   CLOUDY    30  18  60 S14       30.23F WCI  19
MCCOOK         PTCLDY    28  21  75 S10       30.28F WCI  19
LEXINGTON      CLOUDY    31  22  70 S13       30.31R WCI  21
PAXTON           N/A     30  22  73 SE17        N/A  WCI  18
BRADY            N/A     29  20  67 CALM        N/A
GOTHENBURG       N/A     30  20  67 S10         N/A  WCI  21
CALLAWAY         N/A     28  19  67 S13         N/A  WCI  17
$$

...NORTH PLATTE AREA...

CITY           SKY/WX    TMP DP  RH WIND       PRES   REMARKS
AIRPORT        CLOUDY    30  18  60 S14       30.23F WCI  19
DOWNTOWN         N/A     29  20  67 S8G15       N/A  WCI  21
$$

...SOME WEATHER OBSERVATIONS FROM AROUND THE REGION...

CITY           SKY/WX    TMP DP  RH WIND       PRES   REMARKS
DENVER         MOCLDY    16  13  88 SW9       29.97F FOG     WCI   4
LARAMIE        CLOUDY    22  19  89 S9        29.86F WCI  12
CHEYENNE       CLOUDY    20  18  92 S9        29.94F FOG     WCI   9
SCOTTSBLUFF    CLOUDY    29  20  69 SE13      30.03F WCI  19
RAPID CITY     PTCLDY    17   9  70 S12       29.97F WCI   4
PIERRE         PTCLDY    15  11  83 SE12      30.22F WCI   2
WINNER         CLOUDY    25   7  46 S17G28    30.23F WCI  12
SIOUX FALLS    MOCLDY    10   6  84 CALM      30.42R
OMAHA          PTSUNNY   22  16  78 CALM      30.47S
GRAND ISLAND   CLOUDY    26  14  60 SE8       30.38R WCI  18
KANSAS CITY    CLOUDY    27  22  81 CALM      30.48R
WICHITA        CLOUDY    21  18  88 CALM      30.43F
HAYS           MOCLDY    21  10  63 SE5       30.37S WCI  15
LIBERAL        CLOUDY    27  19  74 SE8       30.29S WCI  18
GOODLAND       MOCLDY    22  21  96 S10       30.17F FOG     WCI  11
$$



USA.gov is the U.S. government's official web portal to all federal, state and local government web resources and services.